Location: Potomac Astrometric Observatory
(39.0475°N, 77.2064°W)
Time: 22:29:05
(UTC-04:00)

Envisat - Pass Details

Date: 25 March 2019
Orbit: 764 x 766 km, 98.2° (Epoch: 19 April)

Event Time Altitude Azimuth Distance (km) Brightness Sun altitude
Rises 21:05:47 0° 212° (SSW) 3,219 6.4 -19.8°
Reaches altitude 10° 21:09:08 10° 236° (SW) 2,299 5.9 -20.4°
Maximum altitude 21:11:54 15° 269° (W) 1,997 6.0 -20.9°
Drops below altitude 10° 21:14:40 10° 303° (WNW) 2,307 6.6 -21.4°
Sets 21:18:05 0° 327° (NNW) 3,239 7.1 -22.1°
